Погода в Костюковичи

Погода в Костюковичи : погода сейчас, прогноз погоды и архив. Всё, что Вы хотите узнать о погоде в Костюковичи!

Поиск расширенной информации на нашем сайте:

Другие новости

Новости СМИ2

Главная страница сайта

Новости сайта

03.07.2017

Напоминаем, что на нашем специализированном сайте Метеоцентр.Азия вы можете получить высокодетализированные автоматические прогнозы погоды по пунктам России, СНГ и мира в авиационном формате (включающие направление и скорость ветра, видимость, явления погоды, количество и форму облачности, нижнюю и верхнюю границу облачности).


Погода в Костюковичи - сегодня

Время (UTC), дата Ветер
(°,м/с) 
Видим.   Явления Облачность Т
(°С)
Тd
(°С)
f(%) Тe
(°С)
Pmin
(гПа)
dP
(гПа)
Po
(мм)
O2
(г/м3)
Тmin Tmax R s Состояние
почвы
03 17.05.18 040 (СВ) 30000 м    8/0 средняя 
[Ac As]
+14.7 +11.7 82 +20  1011.4  -0.9  744  282           
09 17.05.18 190 (Ю) 35000 м    5/3 1000 м верхняя 
[Cu hum|Ci fib]
+23.1 +11.7 49 +27  1010.7  744  274           
12 17.05.18 200 (Ю) 4{10}  35000 м    5/5 1000 м 
[Cu med, cong]
+25 +10.2 39 +27  1010.3  -0.2  744  273           
15 17.05.18 210 (ЮЗ) 4{10}  28000 м    3/3 1000 м 
[Cu med, cong]
+23.9 +9 39 +24  1009.9  -0.5  743  274           
18 17.05.18 170 (Ю) 35000 м    8/3 2000 м средняя, верхняя 
[Ac trans|Ci sp]
+18.5 +12.6 68 +25  1010.5  0.2  743  278    +25       
21 17.05.18 тихо ()   35000 м    10/10 2000 м 
[Ns]
+14.1 +11.6 85 +18  1011  0.1  743  283           
00 18.05.18 тихо ()   17000 м    6/6 2000 м средняя 
[Ac trans]
+12.5 +11.3 92 +16  1010.7  -0.4  743  284           
03 18.05.18 тихо ()   6000 м  дымка  9/3 2000 м средняя, верхняя 
[Ac trans|Cs]
+10.6 +10.1 97 +12  1009.7  -1.1  742  286           
06 18.05.18 тихо ()   35000 м    9/0 верхняя 
[Cs]
+18.2 +12.4 69 +23  1008.7  -0.4  742  278  +10.2         
09 18.05.18 060 (СВ) 35000 м    8/8 1000 м 
[Cu Sc]
+22.3 +9.8 45 +23  1007.8  -0.6  742  274           
12 18.05.18 340 (С) 35000 м  в посл. час гроза{ливн. осадки}  9/9 1000 м 
[Cu Sc]
+22 +9.6 45 +23  1006.3  -1.5  740  274           
15 18.05.18 010 (С) 35000 м    9/9 1000 м 
[Cu Sc]
+21.3 +10.8 51 +24  1005.5  -0.8  740  275      0.0     
18 18.05.18 250 (З) 35000 м  гроза без осадков  10/3 1000 м кучево-дожд., средняя 
[Cb cap|Ac As]
+16 +11.1 73 +19  1006.6  0.7  740  280    +23.5  0.0     
21 18.05.18 210 (ЮЗ) 1{11}  35000 м  в посл. час дождь{гроза}  6/0 средняя 
[Ac As]
+12.7 +11.3 91 +17  1006.6  -0.3  740  283           
00 19.05.18 170 (Ю) 6000 м  дымка{гроза, дождь}  8/0 средняя 
[Ac trans]
+11.1 +10.5 96 +14  1007.5  0.8  741  285           
03 19.05.18 220 (ЮЗ) 3500 м  дымка  8/0 средняя 
[Ac As]
+11.2 +10.6 96 +14  1007.5  741  285         
06 19.05.18 260 (З) 21000 м    8/0 средняя 
[Ac trans]
+15.3 +12.8 85 +22  1007.9  0.7  741  280  +10.7       
09 19.05.18 290 (З) 30000 м    6/3 1000 м средняя 
[Cu med, cong|Ac trans]
+20.6 +10.1 51 +22  1008.4  0.9  742  276           
12 19.05.18 310 (СЗ) 3{12}  17000 м  слаб. ливневой дождь{гроза}  9/3 600 м кучево-дожд., средняя 
[Cb cap|Ac inh]
+16.3 +13.9 86 +24  1010.3  1.5  743  280           
15 19.05.18 340 (С) 35000 м    4/4 1000 м 
[Cu med, cong]
+18.9 +12.2 65 +24  1010.8  0.7  744  278         
18 19.05.18 020 (С) 2{10}  35000 м  {ливн. осадки}  6/0 средняя 
[Ac trans]
+14.8 +11 78 +18  1013.2  745  283    +21.8     
21 19.05.18 360 (С) 30000 м    3/0 средняя 
[Ac trans]
+11 +9.3 89 +11  1015.4  1.9  746  287           
00 20.05.18 тихо ()   12000 м    ясно 
+7.5 +6.3 92 +8  1017  1.3  747  292           
06 20.05.18 330 (СЗ) 35000 м    10/10 660 м 
[Sc]
+9 +4.1 71 +8  1019.1  749  292  +7.2         
09 20.05.18 320 (СЗ) 35000 м    10/10 1170 м 
[Sc]
+10.2 +4.6 68 +9  1020.2  1.1  750  291           
Время (UTC), дата Ветер
(°,м/с) 
Видим.   Явления Облачность Т
(°С)
Тd
(°С)
f(%) Тe
(°С)
Pmin
(гПа)
dP
(гПа)
Po
(мм)
O2
(г/м3)
Тmin Tmax R s Состояние
почвы

Для получения пояснительной информации подведите курсор к названию столбца.

ПОГОДА в Костюковичи - архив

Всё, что Вы хотите узнать о погоде в Костюковичи - удобно и подробно!

Выберите нужную дату (начиная с 1 января 2015* года) и нажмите кнопку "Найти".
Будут отображены архивные сводки погоды по пункту Костюковичи, начиная с указанной даты.


Отображать данные в формате CSV (для использования в таблицах Excel)


Внимание! Наш архив погоды предназначен исключительно для личного некоммерческого использования в познавательных целях. Если Вам необходимы официальные справки о состоянии погоды (для производственных, юридических, коммерческих и т.п. целей), обращайтесь в органы Росгидромета.

*Примечание: данная дата относится к архиву по метеостанциям СССР (Россия, СНГ, Балтия).
Архив по метеостанциям Зарубежной Европы и Азии (кроме Китая) хранится 10 дней, по другим регионам земного шара (Китай, Африка, Америка, Австралия, Океания) - 1 день.

Костюковичи - район местоположения метеостанции


Название, широта, долгота, высота метеостанции:
Костюковичи 53.3°ш. 32.1°д. 167 м над ур. моря [Беларусь]

Дополнительная информация

В oтличие oт бoльшинства пoгoдных сайтoв мы публикуем пoдрoбную метеoинфoрмацию в детальнoм прoфессиoнальнoм фoрмате.

Характеристики температуры и влажнoсти вoздуха измеряются на высoте 2 м в тени вдали oт зданий и деревьев.
Скoрoсть ветра измеряется на высoте 10 м (на урoвне рoста челoвека скoрoсть ветра ниже в 1.5-2 раза). Если метеoстанция нахoдится в гoрoде или в лесу, тo скoрoсть ветра занижена на 2-4 м/с пo сравнению с oткрытым местoм. Скoрoсть ветра над акватoриями крупных рек и oзёр, а также на вершинах хoлмoв на 2-5 м/с выше, чем в oбычных услoвиях.
Атмoсфернoе давление в разных тoчках местнoсти мoжет значительнo oтличаться oт давления на метеoстанции, в зависимoсти oт услoвий рельефа (при пoдъёме на 10 м давление пoнижается примернo на 1 мм рт.ст.).